Home   Weather   Vejle   Past weeks

Flag for Denmark Past Weather in Vejle, Denmark — Yesterday and Last 2 Weeks

Now
45 °F

Mostly cloudy.


Feels Like: 38 °F
Forecast: 36 / 42 °F
Wind: 13 mph from West

Location: Billund Lufthavn

Current Time: Jan 20, 2017 at 3:21:53 pm

Latest Report: Jan 20, 2017 at 2:50 pm


Visibility: N/A

Pressure: 30.48 "Hg

Humidity: 87%

Dew Point: 41 °F

Location of VejleLocation

Past Weather in Vejle — Graph

°F

Vejle Temperature Yesterday

Maximum temperature yesterday: 43 °F (at 10:50 am)
Minimum temperature yesterday: 41 °F (at 12:20 am)
Average temperature yesterday: 42 °F

High & Low Weather Summary for the Past Weeks

 TemperatureHumidityPressure
High45 °F (Jan 20, 2:20 pm)100% (Jan 7, 1:50 am)30.74 "Hg (Jan 7, 1:50 am)
Low12 °F (Jan 6, 2:20 am)58% (Jan 5, 3:50 pm)29.09 "Hg (Jan 11, 10:50 am)
Average33 °F91%30.08 "Hg
* Reported Jan 5 2:20 pm — Jan 20 2:20 pm, Vejle, Weather by CustomWeather, © 2017

Note: Actual official high and low records may vary slightly from our data, if they occured in-between our weather recording intervals... More about our weather records

Advertising

Vejle Weather History for the Previous 24 Hours

Scroll right to see more
 ConditionsComfort  
Time TempWeatherWind HumidityBarometerVisibility
2:20 pm
Fri, Jan 20
45 °FMostly cloudy.14 mph87%30.48 "HgN/A
1:50 pm43 °FPartly sunny.14 mph93%30.48 "HgN/A
1:20 pm43 °FPartly sunny.15 mph93%30.51 "HgN/A
12:50 pm43 °FBroken clouds.13 mph93%30.51 "HgN/A
12:20 pm43 °FPartly sunny.12 mph93%30.51 "HgN/A
11:50 am43 °FOvercast.10 mph87%30.51 "HgN/A
11:20 am43 °FOvercast.10 mph93%30.51 "HgN/A
10:50 am43 °FOvercast.10 mph87%30.51 "HgN/A
10:20 am43 °FOvercast.10 mph87%30.51 "HgN/A
9:50 am43 °FOvercast.9 mph87%30.51 "HgN/A
9:20 am41 °FOvercast.8 mph93%30.51 "HgN/A
8:50 am41 °FOvercast.8 mph93%30.51 "HgN/A
8:20 am41 °FOvercast.8 mph93%30.51 "HgN/A
7:50 am41 °FOvercast.9 mph100%30.51 "HgN/A
7:20 am41 °FOvercast.9 mph100%30.51 "HgN/A
6:50 am41 °FOvercast.8 mph100%30.51 "HgN/A
6:20 am41 °FOvercast.8 mph100%30.51 "HgN/A
5:50 am41 °FOvercast.8 mph100%30.51 "HgN/A
5:20 am41 °FOvercast.8 mph100%30.51 "HgN/A
4:50 am41 °FLow clouds.8 mph100%30.51 "HgN/A
4:20 am41 °FLow clouds.10 mph100%30.51 "HgN/A
3:50 am41 °FLow clouds.10 mph100%30.51 "HgN/A
3:20 am41 °FLow clouds.10 mph100%30.51 "HgN/A
2:50 am41 °FMostly cloudy.9 mph100%30.54 "HgN/A
2:20 am41 °FLow clouds.9 mph100%30.54 "HgN/A
1:50 am41 °FLow clouds.9 mph100%30.54 "Hg6 mi
1:20 am41 °FLow clouds.9 mph100%30.54 "Hg4 mi
12:50 am41 °FFog.8 mph100%30.54 "Hg2 mi
12:20 am41 °FLow clouds.8 mph100%30.54 "Hg4 mi
11:50 pm
Thu, Jan 19
41 °FLow clouds.8 mph100%30.54 "Hg5 mi
11:20 pm41 °FLow clouds.8 mph100%30.54 "HgN/A
10:50 pm41 °FLow clouds.8 mph100%30.54 "Hg6 mi
10:20 pm41 °FLow clouds.10 mph100%30.54 "Hg6 mi
9:50 pm43 °FLow clouds.10 mph93%30.54 "HgN/A
9:20 pm41 °FLow clouds.10 mph100%30.54 "HgN/A
8:50 pm41 °FLow clouds.9 mph100%30.54 "HgN/A
8:20 pm41 °FLow clouds.9 mph100%30.54 "Hg5 mi
7:50 pm41 °FLow clouds.9 mph100%30.54 "Hg5 mi
7:20 pm41 °FLow clouds.9 mph100%30.54 "HgN/A
6:50 pm41 °FLow clouds.9 mph100%30.54 "Hg6 mi
6:20 pm41 °FPassing clouds.8 mph100%30.54 "Hg6 mi
5:50 pm41 °FMostly cloudy.9 mph100%30.54 "HgN/A
5:20 pm41 °FMostly cloudy.8 mph100%30.54 "HgN/A
4:50 pm43 °FMostly cloudy.9 mph93%30.54 "HgN/A
4:20 pm43 °FMostly cloudy.9 mph93%30.54 "HgN/A
3:50 pm43 °FOvercast.10 mph93%30.54 "HgN/A
3:20 pm43 °FPartly sunny.10 mph93%30.54 "HgN/A
Weather by CustomWeather, © 2017

See weather overviewHow to use our weather pages